Kincheloe, MI

3:29 PM EST on February 26, 2017 (GMT -0500)
Chippewa County International

Weather History for KCIU - February, 2012

Change the Weather History Date:

Sunday, February 26, 2012

  Actual Average Record
Temperature  
Mean Temperature 21 °F -  
Max Temperature 30 °F 29 °F 40 °F (1981)
Min Temperature 12 °F 6 °F -23 °F (1980)
Degree Days  
Heating Degree Days 44    
Moisture  
Dew Point 17 °F    
Average Humidity 89    
Maximum Humidity 100    
Minimum Humidity 74    
Precipitation  
Precipitation 0.00 in - - ()
Sea Level Pressure  
Sea Level Pressure 30.20 in    
Wind  
Wind Speed 9 mph (ESE)    
Max Wind Speed 21 mph    
Max Gust Speed 33 mph    
Visibility 8 miles    
Events      
Averages and records for this station are not official NWS values.
T = Trace of Precipitation, MM = Missing Value Source: NWS Daily Summary

Daily Weather History Graph

Daily Weather History Graph

Search for Another Location

Airport or City:

Trip Planner

Search our weather history database for the weather conditions in past years. The results will help you decide how hot, cold, wet, or windy it might be!

Date:

Astronomy

Feb. 26, 2012 Rise Set
Actual Time 7:23 AM EST 6:19 PM EST
Civil Twilight 6:53 AM EST 6:49 PM EST
Nautical Twilight 6:18 AM EST 7:24 PM EST
Astronomical Twilight 5:43 AM EST 7:59 PM EST
Moon 8:58 AM EST 11:37 PM EST
Length of Visible Light 11h 56m
Length of Day
10h 55m
Waxing Crescent, 20% of the Moon is Illuminated
Feb 26
Waxing Crescent
Feb 29
First Quarter
Mar 8
Full
Mar 14
Last Quarter
Mar 22
New

Hourly Weather History & Observations

Time (EST) Temp. Windchill Dew Point Humidity Pressure Visibility Wind Dir Wind Speed Gust Speed Precip Events Conditions
12:15 AM 17.6 °F 9.3 °F 15.8 °F 93% 30.23 in 10.0 mi West 5.8 mph - N/A   Overcast
12:35 AM 17.6 °F 10.7 °F 15.8 °F 93% 30.23 in 10.0 mi WSW 4.6 mph - N/A   Overcast
12:55 AM 17.6 °F 9.3 °F 15.8 °F 93% 30.25 in 10.0 mi SW 5.8 mph - N/A   Overcast
1:15 AM 17.6 °F 10.7 °F 15.8 °F 93% 30.25 in 10.0 mi WSW 4.6 mph - N/A   Overcast
1:35 AM 17.6 °F 10.7 °F 15.8 °F 93% 30.26 in 10.0 mi SW 4.6 mph - N/A   Overcast
1:55 AM 15.8 °F 8.6 °F 15.8 °F 100% 30.26 in 10.0 mi WSW 4.6 mph - N/A   Overcast
2:15 AM 15.8 °F 8.6 °F 14.0 °F 93% 30.27 in 10.0 mi SW 4.6 mph - N/A   Overcast
2:35 AM 15.8 °F 8.6 °F 14.0 °F 93% 30.27 in 10.0 mi SW 4.6 mph - N/A   Overcast
2:55 AM 15.8 °F 8.6 °F 14.0 °F 93% 30.27 in 10.0 mi SW 4.6 mph - N/A   Overcast
3:15 AM 15.8 °F 7.2 °F 14.0 °F 93% 30.28 in 10.0 mi SW 5.8 mph - N/A   Overcast
3:35 AM 15.8 °F 8.6 °F 14.0 °F 93% 30.28 in 10.0 mi SW 4.6 mph - N/A   Overcast
3:55 AM 15.8 °F 7.2 °F 12.2 °F 86% 30.28 in 10.0 mi SW 5.8 mph - N/A   Scattered Clouds
4:15 AM 15.8 °F 8.6 °F 12.2 °F 86% 30.27 in 10.0 mi SSW 4.6 mph - N/A   Mostly Cloudy
4:35 AM 15.8 °F - 12.2 °F 86% 30.27 in 10.0 mi Calm Calm - N/A   Overcast
4:55 AM 14.0 °F - 12.2 °F 93% 30.28 in 10.0 mi Calm Calm - N/A   Overcast
5:15 AM 14.0 °F - 12.2 °F 93% 30.30 in 10.0 mi Calm Calm - N/A   Overcast
5:35 AM 15.8 °F - 12.2 °F 86% 30.30 in 10.0 mi Calm Calm - N/A   Overcast
5:55 AM 14.0 °F 8.2 °F 10.4 °F 86% 30.30 in 10.0 mi ENE 3.5 mph - N/A   Scattered Clouds
6:15 AM 12.2 °F - 10.4 °F 92% 30.30 in 10.0 mi Calm Calm - N/A   Scattered Clouds
6:35 AM 12.2 °F - 10.4 °F 92% 30.30 in 10.0 mi Calm Calm - N/A   Scattered Clouds
6:55 AM 12.2 °F 6.1 °F 10.4 °F 92% 30.30 in 10.0 mi ESE 3.5 mph - N/A   Clear
7:35 AM 12.2 °F 4.3 °F 12.2 °F 100% 30.31 in 10.0 mi East 4.6 mph - N/A   Scattered Clouds
7:55 AM 15.8 °F 6.1 °F 14.0 °F 93% 30.31 in 10.0 mi ESE 6.9 mph - N/A   Scattered Clouds
8:15 AM 15.8 °F 2.7 °F 14.0 °F 93% 30.30 in 10.0 mi East 11.5 mph - N/A   Partly Cloudy
8:35 AM 17.6 °F 5.0 °F 14.0 °F 86% 30.29 in 10.0 mi ESE 11.5 mph - N/A   Partly Cloudy
8:55 AM 17.6 °F 5.7 °F 14.0 °F 86% 30.29 in 10.0 mi East 10.4 mph - N/A   Clear
9:15 AM 19.4 °F 7.9 °F 14.0 °F 80% 30.30 in 10.0 mi East 10.4 mph - N/A   Clear
9:35 AM 19.4 °F 7.2 °F 14.0 °F 80% 30.31 in 10.0 mi East 11.5 mph - N/A   Mostly Cloudy
9:55 AM 21.2 °F 10.9 °F 14.0 °F 74% 30.31 in 10.0 mi ESE 9.2 mph - N/A   Mostly Cloudy
10:15 AM 21.2 °F 11.7 °F 15.8 °F 80% 30.31 in 10.0 mi East 8.1 mph - N/A   Overcast
10:35 AM 21.2 °F 10.1 °F 14.0 °F 74% 30.30 in 10.0 mi East 10.4 mph - N/A   Overcast
10:55 AM 21.2 °F 10.1 °F 14.0 °F 74% 30.30 in 10.0 mi East 10.4 mph - N/A   Overcast
11:15 AM 21.2 °F 8.9 °F 14.0 °F 74% 30.30 in 10.0 mi East 12.7 mph - N/A   Overcast
11:35 AM 21.2 °F 8.9 °F 15.8 °F 80% 30.30 in 10.0 mi East 12.7 mph - N/A   Overcast
11:55 AM 21.2 °F 10.9 °F 15.8 °F 80% 30.29 in 10.0 mi East 9.2 mph - N/A   Overcast
12:15 PM 23.0 °F 10.1 °F 15.8 °F 74% 30.28 in 2.5 mi East 15.0 mph - N/A   Mostly Cloudy
12:35 PM 21.2 °F 8.9 °F 17.6 °F 86% 30.27 in 2.5 mi East 12.7 mph - N/A   Overcast
12:55 PM 23.0 °F 10.6 °F 17.6 °F 80% 30.25 in 2.5 mi East 13.8 mph - N/A   Overcast
1:15 PM 23.0 °F 10.6 °F 19.4 °F 86% 30.23 in 1.5 mi East 13.8 mph 17.3 mph N/A   Overcast
1:35 PM 23.0 °F 10.1 °F 19.4 °F 86% 30.21 in 2.0 mi East 15.0 mph - N/A   Overcast
1:55 PM 21.2 °F 7.8 °F 19.4 °F 93% 30.19 in 1.2 mi East 15.0 mph 23.0 mph N/A   Overcast
2:15 PM 21.2 °F 5.6 °F 19.4 °F 93% 30.18 in 1.2 mi East 20.7 mph - N/A   Overcast
2:35 PM 21.2 °F 6.4 °F 19.4 °F 93% 30.16 in 1.0 mi East 18.4 mph 26.5 mph N/A   Overcast
2:55 PM 21.2 °F 7.3 °F 19.4 °F 93% 30.14 in 0.5 mi East 16.1 mph 26.5 mph N/A   Overcast
3:15 PM 21.2 °F 6.4 °F 19.4 °F 93% 30.12 in 1.5 mi East 18.4 mph 26.5 mph N/A   Overcast
3:35 PM 21.2 °F 6.8 °F 21.2 °F 100% 30.10 in 1.2 mi East 17.3 mph 29.9 mph N/A   Overcast
3:55 PM 21.2 °F 6.4 °F 21.2 °F 100% 30.10 in 3.0 mi East 18.4 mph - N/A   Overcast
4:15 PM 21.2 °F 5.6 °F 21.2 °F 100% 30.10 in 4.0 mi East 20.7 mph 25.3 mph N/A   Overcast
4:35 PM 23.0 °F 8.3 °F 21.2 °F 93% 30.09 in 6.0 mi East 19.6 mph 25.3 mph N/A   Overcast
4:55 PM 23.0 °F 8.7 °F 21.2 °F 93% 30.08 in 7.0 mi East 18.4 mph 25.3 mph N/A   Overcast
5:15 PM 23.0 °F 9.6 °F 21.2 °F 93% 30.10 in 9.0 mi East 16.1 mph 24.2 mph N/A   Overcast
5:35 PM 24.8 °F 11.9 °F 23.0 °F 93% 30.09 in 10.0 mi East 16.1 mph - N/A   Overcast
5:55 PM 24.8 °F 11.9 °F 23.0 °F 93% 30.08 in 10.0 mi East 16.1 mph 25.3 mph N/A   Overcast
6:15 PM 24.8 °F 11.9 °F 23.0 °F 93% 30.08 in 10.0 mi East 16.1 mph - N/A   Overcast
6:35 PM 24.8 °F 10.7 °F 23.0 °F 93% 30.05 in 10.0 mi ESE 19.6 mph - N/A   Overcast
6:55 PM 24.8 °F 10.7 °F 23.0 °F 93% 30.01 in 9.0 mi ESE 19.6 mph - N/A   Overcast
7:15 PM 26.6 °F 12.7 °F 24.8 °F 93% 30.03 in 7.0 mi SE 20.7 mph 33.4 mph N/A   Mostly Cloudy
7:35 PM 28.4 °F 15.1 °F 24.8 °F 86% 30.04 in 10.0 mi SE 20.7 mph 25.3 mph N/A   Overcast
7:55 PM 28.4 °F 15.1 °F 24.8 °F 86% 30.05 in 10.0 mi SE 20.7 mph 27.6 mph N/A   Overcast
8:15 PM 28.4 °F 15.8 °F 24.8 °F 86% 30.03 in 10.0 mi ESE 18.4 mph 25.3 mph N/A   Overcast
8:35 PM 28.4 °F 15.4 °F 24.8 °F 86% 30.03 in 10.0 mi SE 19.6 mph 27.6 mph N/A   Overcast
8:55 PM 28.4 °F 15.1 °F 24.8 °F 86% 30.02 in 10.0 mi ESE 20.7 mph 27.6 mph N/A   Overcast
9:15 PM 30.2 °F 17.4 °F 24.8 °F 80% 30.00 in 10.0 mi SE 20.7 mph 26.5 mph N/A   Overcast
9:55 PM 30.2 °F 17.4 °F 26.6 °F 86% 29.97 in 10.0 mi SE 20.7 mph - N/A   Overcast
10:15 PM 30.2 °F 17.4 °F 26.6 °F 86% 29.96 in 10.0 mi SE 20.7 mph - N/A   Overcast
10:35 PM 30.2 °F 17.8 °F 26.6 °F 86% 29.96 in 10.0 mi SE 19.6 mph 26.5 mph N/A   Overcast
10:55 PM 30.2 °F 16.8 °F 26.6 °F 86% 29.94 in 10.0 mi SE 23.0 mph 28.8 mph N/A   Overcast
11:15 PM 30.2 °F 18.5 °F 26.6 °F 86% 29.93 in 10.0 mi ESE 17.3 mph 26.5 mph N/A   Overcast
11:35 PM 30.2 °F 19.8 °F 26.6 °F 86% 29.92 in 10.0 mi SE 13.8 mph - N/A   Overcast
11:55 PM 30.2 °F 18.5 °F 26.6 °F 86% 29.90 in 10.0 mi SE 17.3 mph 21.9 mph N/A   Overcast